sat.trackr.live / text

‹ back to catalog

STARLINK-11315 [DTC]

NORAD 61692 · 2024-195F

PAYLOAD ACTIVE UNKNOWN

§ Identity

Operator
Country
US
Launch date
2024-10-30
Launch site
AFWTR
Launch vehicle
Mass (kg)
RCS (m²)

Purposes: comms

External: N2YO · Heavens-Above · Gunter

§ Orbital elements

Epoch: 2026-05-24T21:54:31.320000Z

Period
91.74 min
Inclination
53.1587°
Eccentricity
0.0000605
Mean motion
15.69699252 rev/d
Perigee alt
359.3 km
Apogee alt
360.2 km
Semi-major
6,737.9 km
B*
2.4040e-5
RAAN
10.6321°
Arg perigee
85.0902°
Mean anomaly
275.0185°
Rev number
9,100

§ Raw data

STARLINK-11315 [DTC]1 61692U 24195F   26144.91286250  .00002324  00000+0  24040-4 0  99992 61692  53.1587  10.6321 0000605  85.0902 275.0185 15.69699252 91005

JSON: /api/v1/satellites/61692 · /tle

For live sub-satellite position, see the globe view (requires WebGL).

§ Visibility from observer

Set your observer location to see the next 7 days of passes ≥ 10°. The values pass through the URL so the page stays shareable.

No JS? Fill the form by hand. The geolocation button needs JavaScript.